Time,TemperatureF,DewpointF,PressureIn,WindDirection,WindDirectionDegrees,WindSpeedMPH,WindSpeedGustMPH,Humidity,HourlyPrecipIn,Conditions,Clouds,dailyrainin,SoftwareType,DateUTC
2013-08-24 00:14:00,63.0,-99.9,30.13,North,2,4.0,-999.0,-999,-99.99,,,-99.99,,2013-08-24 04:14:00,
2013-08-24 00:24:00,63.0,-99.9,30.13,North,2,4.0,-999.0,-999,-99.99,,,-99.99,,2013-08-24 04:24:00,
2013-08-24 00:54:00,64.0,-99.9,-100.00,WNW,303,2.0,-999.0,-999,-99.99,,,-99.99,,2013-08-24 04:54:00,
2013-08-24 01:03:00,64.0,-99.9,-100.00,WNW,303,2.0,-999.0,-999,-99.99,,,-99.99,,2013-08-24 05:03:00,
2013-08-24 01:13:00,64.0,-99.9,30.15,WNW,303,2.0,-999.0,-999,-99.99,,,-99.99,,2013-08-24 05:13:00,
2013-08-24 01:23:00,64.0,-99.9,30.15,WNW,303,2.0,-999.0,-999,-99.99,,,-99.99,,2013-08-24 05:23:00,
2013-08-24 01:30:00,61.0,-99.9,30.16,NNW,331,3.0,-999.0,-999,-99.99,,,-99.99,,2013-08-24 05:30:00,
2013-08-24 01:43:00,62.0,-99.9,30.16,NW,312,3.0,-999.0,-999,-99.99,,,-99.99,,2013-08-24 05:43:00,
2013-08-24 02:12:00,61.0,-99.9,30.16,NNW,331,3.0,-999.0,-999,-99.99,,,-99.99,,2013-08-24 06:12:00,
2013-08-24 02:22:00,61.0,-99.9,30.16,NNW,331,3.0,-999.0,-999,-99.99,,,-99.99,,2013-08-24 06:22:00,
2013-08-24 02:30:00,64.0,-99.9,30.16,NNE,21,6.0,-999.0,-999,-99.99,,,-99.99,,2013-08-24 06:30:00,
2013-08-24 03:12:00,64.0,-99.9,30.16,NNE,21,6.0,-999.0,-999,-99.99,,,-99.99,,2013-08-24 07:12:00,
2013-08-24 03:22:00,64.0,-99.9,30.16,NNE,21,6.0,-999.0,-999,-99.99,,,-99.99,,2013-08-24 07:22:00,
2013-08-24 03:30:00,68.0,-99.9,-100.00,NE,56,17.0,-999.0,-999,-99.99,,,-99.99,,2013-08-24 07:30:00,
2013-08-24 04:12:00,68.0,-99.9,-100.00,NE,56,17.0,-999.0,-999,-99.99,,,-99.99,,2013-08-24 08:12:00,
2013-08-24 04:22:00,68.0,-99.9,-100.00,NE,56,17.0,-999.0,-999,-99.99,,,-99.99,,2013-08-24 08:22:00,
2013-08-24 04:30:00,67.0,-99.9,30.21,NE,54,9.0,-999.0,-999,-99.99,,,-99.99,,2013-08-24 08:30:00,
2013-08-24 05:11:00,67.0,-99.9,-100.00,NE,54,9.0,-999.0,-999,-99.99,,,-99.99,,2013-08-24 09:11:00,
2013-08-24 05:22:00,67.0,-99.9,30.21,NE,54,9.0,-999.0,-999,-99.99,,,-99.99,,2013-08-24 09:22:00,
2013-08-24 05:30:00,66.0,-99.9,30.23,NE,53,15.0,-999.0,-999,-99.99,,,-99.99,,2013-08-24 09:30:00,
2013-08-24 06:13:00,66.0,-99.9,30.23,NE,53,15.0,-999.0,-999,-99.99,,,-99.99,,2013-08-24 10:13:00,
2013-08-24 06:23:00,66.0,-99.9,30.23,NE,53,15.0,-999.0,-999,-99.99,,,-99.99,,2013-08-24 10:23:00,
2013-08-24 06:53:00,66.0,-99.9,-100.00,ENE,61,12.0,-999.0,-999,-99.99,,,-99.99,,2013-08-24 10:53:00,
2013-08-24 07:03:00,66.0,-99.9,-100.00,ENE,61,12.0,-999.0,-999,-99.99,,,-99.99,,2013-08-24 11:03:00,
2013-08-24 07:12:00,66.0,-99.9,30.26,ENE,61,12.0,-999.0,-999,-99.99,,,-99.99,,2013-08-24 11:12:00,
2013-08-24 07:22:00,66.0,-99.9,30.26,ENE,61,12.0,-999.0,-999,-99.99,,,-99.99,,2013-08-24 11:22:00,
2013-08-24 07:30:00,66.0,-99.9,30.28,NE,48,15.0,-999.0,-999,-99.99,,,-99.99,,2013-08-24 11:30:00,
2013-08-24 07:43:00,66.0,-99.9,-100.00,ENE,57,14.0,-999.0,-999,-99.99,,,-99.99,,2013-08-24 11:43:00,
2013-08-24 08:12:00,66.0,-99.9,30.28,NE,48,15.0,-999.0,-999,-99.99,,,-99.99,,2013-08-24 12:12:00,
2013-08-24 08:22:00,66.0,-99.9,30.28,NE,48,15.0,-999.0,-999,-99.99,,,-99.99,,2013-08-24 12:22:00,
2013-08-24 08:30:00,67.0,-99.9,-100.00,NE,46,11.0,-999.0,-999,-99.99,,,-99.99,,2013-08-24 12:30:00,
2013-08-24 08:52:00,67.0,-99.9,-100.00,NE,46,11.0,-999.0,-999,-99.99,,,-99.99,,2013-08-24 12:52:00,
2013-08-24 09:02:00,67.0,-99.9,-100.00,NE,46,11.0,-999.0,-999,-99.99,,,-99.99,,2013-08-24 13:02:00,
2013-08-24 09:11:00,67.0,-99.9,-100.00,NE,46,11.0,-999.0,-999,-99.99,,,-99.99,,2013-08-24 13:11:00,
2013-08-24 09:22:00,67.0,-99.9,-100.00,NE,46,11.0,-999.0,-999,-99.99,,,-99.99,,2013-08-24 13:22:00,
2013-08-24 09:30:00,68.0,-99.9,30.31,ENE,64,17.0,-999.0,-999,-99.99,,,-99.99,,2013-08-24 13:30:00,
2013-08-24 10:11:00,68.0,-99.9,30.31,ENE,64,17.0,-999.0,-999,-99.99,,,-99.99,,2013-08-24 14:11:00,
2013-08-24 10:22:00,68.0,-99.9,30.31,ENE,64,17.0,-999.0,-999,-99.99,,,-99.99,,2013-08-24 14:22:00,
2013-08-24 10:30:00,68.0,-99.9,-100.00,ENE,72,13.0,-999.0,-999,-99.99,,,-99.99,,2013-08-24 14:30:00,
2013-08-24 11:12:00,68.0,-99.9,-100.00,ENE,72,13.0,-999.0,-999,-99.99,,,-99.99,,2013-08-24 15:12:00,
2013-08-24 11:22:00,68.0,-99.9,-100.00,ENE,72,13.0,-999.0,-999,-99.99,,,-99.99,,2013-08-24 15:22:00,
2013-08-24 11:30:00,68.0,-99.9,-100.00,ENE,57,18.0,-999.0,-999,-99.99,,,-99.99,,2013-08-24 15:30:00,
2013-08-24 12:14:00,68.0,-99.9,-100.00,ENE,57,18.0,-999.0,-999,-99.99,,,-99.99,,2013-08-24 16:14:00,
2013-08-24 12:23:00,68.0,-99.9,-100.00,ENE,57,18.0,-999.0,-999,-99.99,,,-99.99,,2013-08-24 16:23:00,
2013-08-24 13:12:00,68.0,-99.9,30.34,ENE,74,10.0,-999.0,-999,-99.99,,,-99.99,,2013-08-24 17:12:00,
2013-08-24 13:23:00,68.0,-99.9,30.34,ENE,74,10.0,-999.0,-999,-99.99,,,-99.99,,2013-08-24 17:23:00,
2013-08-24 13:30:00,67.0,-99.9,-100.00,NE,41,14.0,-999.0,-999,-99.99,,,-99.99,,2013-08-24 17:30:00,
2013-08-24 13:42:00,68.0,-99.9,-100.00,ENE,63,9.0,-999.0,-999,-99.99,,,-99.99,,2013-08-24 17:42:00,
2013-08-24 14:13:00,67.0,-99.9,-100.00,NE,41,14.0,-999.0,-999,-99.99,,,-99.99,,2013-08-24 18:13:00,
2013-08-24 14:22:00,67.0,-99.9,-100.00,NE,41,14.0,-999.0,-999,-99.99,,,-99.99,,2013-08-24 18:22:00,
2013-08-24 14:30:00,67.0,-99.9,30.34,NE,43,11.0,-999.0,-999,-99.99,,,-99.99,,2013-08-24 18:30:00,
2013-08-24 15:12:00,67.0,-99.9,30.34,NE,43,11.0,-999.0,-999,-99.99,,,-99.99,,2013-08-24 19:12:00,
2013-08-24 15:22:00,67.0,-99.9,30.34,NE,43,11.0,-999.0,-999,-99.99,,,-99.99,,2013-08-24 19:22:00,
2013-08-24 15:30:00,67.0,-99.9,30.34,NE,53,7.0,-999.0,-999,-99.99,,,-99.99,,2013-08-24 19:30:00,
2013-08-24 15:52:00,67.0,-99.9,30.34,NE,53,7.0,-999.0,-999,-99.99,,,-99.99,,2013-08-24 19:52:00,
2013-08-24 16:02:00,67.0,-99.9,30.34,NE,53,7.0,-999.0,-999,-99.99,,,-99.99,,2013-08-24 20:02:00,
2013-08-24 16:12:00,67.0,-99.9,30.34,NE,53,7.0,-999.0,-999,-99.99,,,-99.99,,2013-08-24 20:12:00,
2013-08-24 16:22:00,67.0,-99.9,30.34,NE,53,7.0,-999.0,-999,-99.99,,,-99.99,,2013-08-24 20:22:00,
2013-08-24 16:30:00,67.0,-99.9,-100.00,NE,51,7.0,-999.0,-999,-99.99,,,-99.99,,2013-08-24 20:30:00,
2013-08-24 17:11:00,67.0,-99.9,-100.00,NE,51,7.0,-999.0,-999,-99.99,,,-99.99,,2013-08-24 21:11:00,
2013-08-24 17:22:00,67.0,-99.9,-100.00,NE,51,7.0,-999.0,-999,-99.99,,,-99.99,,2013-08-24 21:22:00,
2013-08-24 17:30:00,68.0,-99.9,30.34,NE,45,6.0,-999.0,-999,-99.99,,,-99.99,,2013-08-24 21:30:00,
2013-08-24 18:14:00,68.0,-99.9,30.34,NE,45,6.0,-999.0,-999,-99.99,,,-99.99,,2013-08-24 22:14:00,
2013-08-24 18:24:00,68.0,-99.9,30.34,NE,45,6.0,-999.0,-999,-99.99,,,-99.99,,2013-08-24 22:24:00,
2013-08-24 18:30:00,67.0,-99.9,30.33,ENE,70,4.0,-999.0,-999,-99.99,,,-99.99,,2013-08-24 22:30:00,
2013-08-24 19:12:00,67.0,-99.9,30.33,ENE,70,4.0,-999.0,-999,-99.99,,,-99.99,,2013-08-24 23:12:00,
2013-08-24 19:22:00,67.0,-99.9,30.33,ENE,70,4.0,-999.0,-999,-99.99,,,-99.99,,2013-08-24 23:22:00,
2013-08-24 19:30:00,63.0,-99.9,30.34,NNW,331,1.0,-999.0,-999,-99.99,,,-99.99,,2013-08-24 23:30:00,
2013-08-24 19:53:00,63.0,-99.9,30.34,NNW,331,1.0,-999.0,-999,-99.99,,,-99.99,,2013-08-24 23:53:00,
2013-08-24 20:02:00,63.0,-99.9,30.34,NNW,331,1.0,-999.0,-999,-99.99,,,-99.99,,2013-08-25 00:02:00,
2013-08-24 20:12:00,63.0,-99.9,30.34,NNW,331,1.0,-999.0,-999,-99.99,,,-99.99,,2013-08-25 00:12:00,
2013-08-24 20:22:00,63.0,-99.9,30.34,NNW,331,1.0,-999.0,-999,-99.99,,,-99.99,,2013-08-25 00:22:00,
2013-08-24 20:30:00,59.0,-99.9,30.36,WNW,297,4.0,-999.0,-999,-99.99,,,-99.99,,2013-08-25 00:30:00,
2013-08-24 20:52:00,59.0,-99.9,-100.00,WNW,297,4.0,-999.0,-999,-99.99,,,-99.99,,2013-08-25 00:52:00,
2013-08-24 21:01:00,59.0,-99.9,-100.00,WNW,297,4.0,-999.0,-999,-99.99,,,-99.99,,2013-08-25 01:01:00,
2013-08-24 21:12:00,59.0,-99.9,-100.00,WNW,297,4.0,-999.0,-999,-99.99,,,-99.99,,2013-08-25 01:12:00,
2013-08-24 21:22:00,59.0,-99.9,30.36,WNW,297,4.0,-999.0,-999,-99.99,,,-99.99,,2013-08-25 01:22:00,
2013-08-24 21:30:00,57.0,-99.9,30.37,WNW,303,2.0,-999.0,-999,-99.99,,,-99.99,,2013-08-25 01:30:00,
2013-08-24 22:12:00,57.0,-99.9,30.37,WNW,303,2.0,-999.0,-999,-99.99,,,-99.99,,2013-08-25 02:12:00,
2013-08-24 22:22:00,57.0,-99.9,30.37,WNW,303,2.0,-999.0,-999,-99.99,,,-99.99,,2013-08-25 02:22:00,
2013-08-24 22:30:00,55.0,-99.9,30.37,West,260,3.0,-999.0,-999,-99.99,,,-99.99,,2013-08-25 02:30:00,
2013-08-24 23:11:00,55.0,-99.9,30.37,West,260,3.0,-999.0,-999,-99.99,,,-99.99,,2013-08-25 03:11:00,
2013-08-24 23:23:00,55.0,-99.9,30.37,West,260,3.0,-999.0,-999,-99.99,,,-99.99,,2013-08-25 03:23:00,
2013-08-24 23:30:00,54.0,-99.9,30.37,WNW,301,2.0,-999.0,-999,-99.99,,,-99.99,,2013-08-25 03:30:00,